Flag for Cuba Weather past 2 weeks in Santiago de Cuba, Cuba

Now
84 °F

Scattered clouds.


Feels Like: 86 °F
Forecast: 71 / 87 °F
Wind: 5 mph from South

Location: Santiago De Cuba - Oriente

Current Time: Mar 1, 2015 at 10:43:15 AM

Latest Report: Mar 1, 2015 at 9:50 AM


Visibility: N/A

Pressure: 30.18 "Hg

Humidity: 51%

Dew point: 64 °F

Location of Santiago de CubaLocation

Historic Weather in Santiago de Cuba — Graph

°F

Santiago de Cuba temperature yesterday

Maximum temperature yesterday: 86 °F (at 10:50 AM)
Minimum temperature yesterday: 70 °F (at 5:50 AM)
Average temperature yesterday: 78 °F

Past Weeks' High & Low Weather Summary

 TemperatureHumidityPressure
High86 °F (Feb 14, 1:50 PM)94% (Feb 18, 1:50 AM)30.15 "Hg (Feb 18, 1:50 AM)
Low64 °F (Feb 16, 6:50 AM)29% (Feb 15, 2:51 PM)29.95 "Hg (Feb 24, 2:50 PM)
Average76 °F68%30.05 "Hg
* Reported Feb 14 8:50 AM — Mar 1 8:50 AM, Santiago de Cuba, Weather by CustomWeather, © 2015

Note: Actual official high and low records may vary slightly from our data, if they occured in-between our weather recording intervals... More about our weather records

Advertising

Santiago de Cuba weather history for previous 24 hours

 ConditionsComfort  
Time TempWeatherWind HumidityBarometerVisibility
8:50 AM
Sun, Mar 1
81 °FPassing clouds.5 mph66%30.15 "HgN/A
7:52 AM79 °FScattered clouds.6 mph70%30.15 "Hg6 mi
6:50 AM73 °FScattered clouds.7 mph78%30.12 "Hg6 mi
5:50 AM73 °FPassing clouds.6 mph78%30.09 "Hg6 mi
4:50 AM73 °FPassing clouds.6 mph74%30.09 "Hg6 mi
3:50 AM72 °FPassing clouds.8 mph78%30.09 "Hg6 mi
2:50 AM72 °FPassing clouds.7 mph73%30.09 "Hg6 mi
1:50 AM73 °FPassing clouds.6 mph69%30.09 "Hg6 mi
12:50 AM73 °FPassing clouds.6 mph69%30.09 "Hg6 mi
11:51 PM
Sat, Feb 28
75 °FPassing clouds.8 mph69%30.12 "Hg6 mi
10:51 PM75 °FPassing clouds.6 mph69%30.12 "Hg6 mi
9:51 PM75 °FPassing clouds.7 mph69%30.12 "Hg6 mi
8:51 PM75 °FPassing clouds.7 mph83%30.12 "Hg6 mi
7:51 PM77 °FPassing clouds.7 mph83%30.09 "Hg6 mi
6:51 PM79 °FScattered showers. Passing clouds.9 mph79%N/A6 mi
5:50 PM81 °FScattered showers. Scattered clouds.8 mph70%30.07 "Hg6 mi
4:50 PM81 °FPassing clouds.10 mph70%30.07 "Hg6 mi
3:50 PM82 °FPassing clouds.13 mph66%30.07 "Hg6 mi
2:50 PM84 °FScattered clouds.14 mph58%30.07 "HgN/A
1:50 PM84 °FScattered clouds.12 mph55%30.07 "HgN/A
12:50 PM84 °FScattered clouds.10 mph58%30.09 "HgN/A
11:50 AM86 °FScattered clouds.13 mph55%30.12 "HgN/A
10:50 AM86 °FPassing clouds.8 mph49%30.12 "HgN/A
Weather by CustomWeather, © 2015

See weather overviewHow to use our weather pages